QPF
0.00 0.00 0.00 0.00 0.00 0.00 0.00 0.00 0.00 0.00 0.01 0.01 0.01 0.01 0.04 0.09 0.04 0.03 0.03 0.03 0.06 0.06 0.04 0.04 0.05 0.12 0.22 0.12 0.05 0.04 0.04 0.06 0.06 0.05 0.06 0.08 0.08 0.06 0.05 0.04 0.04 0.04 0.04 0.03
0.00 0.00 0.00 0.00 0.00 0.00 0.00 0.00 0.01 0.00 0.00 0.01 0.01 0.01 0.03 0.06 0.03 0.03 0.04 0.05 0.06 0.12 0.06 0.05 0.08 0.09 0.14 0.12 0.09 0.08 0.06 0.05 0.06 0.06 0.06 0.07 0.10 0.10 0.06 0.03 0.02 0.02 0.02 0.01
0.00 0.00 0.00 0.00 0.00 0.00 0.00 0.01 0.01 0.01 0.01 0.01 0.02 0.03 0.04 0.11 0.11 0.08 0.10 0.13 0.10 0.12 0.07 0.06 0.09 0.07 0.07 0.11 0.12 0.08 0.05 0.04 0.04 0.04 0.06 0.06 0.06 0.07 0.06 0.04 0.03 0.02 0.01 0.02
0.00 0.00 0.00 0.00 0.01 0.01 0.01 0.01 0.01 0.01 0.01 0.01 0.02 0.03 0.06 0.10 0.12 0.09 0.10 0.12 0.13 0.09 0.07 0.07 0.08 0.08 0.08 0.07 0.06 0.06 0.07 0.07 0.04 0.07 0.12 0.11 0.09 0.09 0.08 0.07 0.05 0.03 0.02 0.02
0.00 0.00 0.00 0.00 0.00 0.01 0.01 0.01 0.01 0.02 0.02 0.01 0.02 0.03 0.03 0.06 0.07 0.06 0.05 0.05 0.07 0.07 0.05 0.04 0.04 0.05 0.08 0.10 0.08 0.08 0.09 0.11 0.08 0.04 0.11 0.15 0.15 0.13 0.12 0.09 0.05 0.03 0.02 0.02
0.00 0.00 0.00 0.00 0.00 0.00 0.00 0.01 0.02 0.02 0.03 0.03 0.02 0.03 0.05 0.05 0.06 0.06 0.05 0.05 0.05 0.05 0.04 0.03 0.03 0.04 0.07 0.07 0.07 0.06 0.06 0.07 0.08 0.06 0.05 0.07 0.10 0.11 0.09 0.06 0.04 0.02 0.01 0.01
0.00 0.00 0.00 0.00 0.00 0.00 0.01 0.01 0.02 0.02 0.02 0.02 0.02 0.02 0.04 0.04 0.05 0.07 0.06 0.06 0.07 0.06 0.06 0.06 0.07 0.05 0.06 0.06 0.07 0.09 0.08 0.07 0.09 0.08 0.08 0.07 0.07 0.05 0.05 0.04 0.03 0.02 0.01 0.01
0.00 0.01 0.01 0.00 0.00 0.00 0.00 0.00 0.01 0.02 0.02 0.03 0.03 0.02 0.03 0.06 0.10 0.12 0.10 0.06 0.06 0.06 0.08 0.08 0.07 0.08 0.13 0.10 0.14 0.22 0.23 0.11 0.06 0.06 0.10 0.12 0.10 0.08 0.06 0.05 0.04 0.03 0.03 0.02
0.01 0.01 0.01 0.01 0.01 0.01 0.01 0.01 0.01 0.01 0.02 0.02 0.02 0.01 0.03 0.10 0.16 0.15 0.08 0.05 0.05 0.05 0.07 0.07 0.07 0.08 0.08 0.08 0.08 0.08 0.12 0.11 0.06 0.05 0.04 0.05 0.07 0.09 0.08 0.06 0.04 0.03 0.03 0.02
0.02 0.02 0.01 0.01 0.01 0.01 0.02 0.02 0.02 0.02 0.02 0.02 0.02 0.03 0.04 0.06 0.07 0.05 0.04 0.04 0.04 0.04 0.04 0.04 0.04 0.04 0.04 0.05 0.05 0.06 0.06 0.05 0.05 0.04 0.03 0.03 0.03 0.03 0.03 0.03 0.02 0.01 0.01 0.01
0.02 0.03 0.02 0.02 0.02 0.01 0.01 0.01 0.02 0.02 0.02 0.02 0.02 0.03 0.05 0.05 0.04 0.03 0.03 0.03 0.02 0.02 0.02 0.02 0.02 0.03 0.02 0.02 0.03 0.05 0.08 0.06 0.06 0.05 0.03 0.02 0.02 0.02 0.01 0.01 0.01 0.01 0.01 0.01
0.03 0.04 0.04 0.03 0.02 0.02 0.02 0.01 0.01 0.02 0.02 0.03 0.03 0.04 0.04 0.04 0.04 0.03 0.03 0.03 0.02 0.02 0.03 0.03 0.02 0.02 0.03 0.03 0.03 0.04 0.07 0.06 0.05 0.05 0.04 0.03 0.02 0.02 0.02 0.02 0.02 0.02 0.02 0.02
0.06 0.05 0.05 0.05 0.04 0.04 0.04 0.04 0.05 0.04 0.03 0.04 0.05 0.05 0.05 0.04 0.02 0.02 0.02 0.02 0.02 0.02 0.02 0.02 0.02 0.02 0.03 0.04 0.05 0.04 0.04 0.05 0.05 0.07 0.06 0.05 0.04 0.04 0.05 0.05 0.06 0.05 0.04 0.04
0.08 0.09 0.06 0.06 0.06 0.05 0.05 0.07 0.10 0.06 0.04 0.04 0.04 0.04 0.03 0.03 0.02 0.02 0.01 0.02 0.01 0.01 0.01 0.01 0.01 0.02 0.02 0.03 0.03 0.05 0.05 0.04 0.03 0.03 0.03 0.04 0.04 0.04 0.05 0.05 0.05 0.05 0.05 0.06
0.10 0.12 0.08 0.03 0.07 0.05 0.04 0.07 0.08 0.05 0.02 0.03 0.03 0.02 0.02 0.03 0.02 0.01 0.01 0.01 0.01 0.02 0.02 0.01 0.01 0.01 0.01 0.01 0.02 0.03 0.03 0.03 0.03 0.03 0.03 0.04 0.04 0.04 0.04 0.04 0.04 0.03 0.02 0.03
0.11 0.15 0.12 0.04 0.02 0.03 0.05 0.07 0.08 0.03 0.02 0.02 0.02 0.02 0.02 0.02 0.02 0.01 0.01 0.02 0.02 0.01 0.01 0.01 0.02 0.02 0.02 0.02 0.02 0.02 0.02 0.03 0.03 0.03 0.04 0.05 0.05 0.05 0.06 0.05 0.04 0.03 0.03 0.03
0.16 0.19 0.17 0.07 0.04 0.05 0.07 0.11 0.11 0.04 0.02 0.02 0.01 0.01 0.01 0.02 0.02 0.01 0.01 0.01 0.02 0.03 0.01 0.01 0.01 0.01 0.01 0.01 0.01 0.01 0.01 0.02 0.03 0.03 0.03 0.05 0.06 0.05 0.05 0.05 0.04 0.03 0.03 0.03
0.14 0.17 0.15 0.11 0.09 0.10 0.09 0.11 0.09 0.06 0.04 0.02 0.02 0.02 0.01 0.02 0.02 0.01 0.01 0.02 0.02 0.02 0.02 0.01 0.02 0.02 0.02 0.01 0.01 0.01 0.01 0.01 0.02 0.02 0.02 0.02 0.03 0.04 0.03 0.02 0.02 0.02 0.01 0.01
0.11 0.15 0.16 0.11 0.09 0.11 0.07 0.05 0.06 0.06 0.04 0.03 0.02 0.02 0.02 0.02 0.02 0.01 0.01 0.02 0.02 0.02 0.01 0.01 0.01 0.02 0.02 0.02 0.02 0.02 0.03 0.03 0.03 0.02 0.02 0.02 0.02 0.03 0.03 0.02 0.02 0.01 0.01 0.01
0.09 0.11 0.13 0.09 0.07 0.07 0.04 0.03 0.03 0.04 0.04 0.04 0.03 0.03 0.04 0.03 0.02 0.02 0.01 0.01 0.01 0.01 0.01 0.01 0.02 0.02 0.02 0.03 0.05 0.05 0.04 0.03 0.03 0.02 0.02 0.02 0.02 0.03 0.02 0.02 0.01 0.01 0.01 0.01
0.06 0.06 0.06 0.05 0.04 0.05 0.04 0.03 0.03 0.03 0.03 0.04 0.02 0.02 0.03 0.03 0.03 0.03 0.03 0.02 0.02 0.02 0.02 0.02 0.02 0.02 0.02 0.03 0.05 0.06 0.05 0.04 0.03 0.03 0.03 0.03 0.03 0.03 0.03 0.02 0.01 0.01 0.01 0.01
0.04 0.03 0.03 0.03 0.04 0.05 0.05 0.03 0.03 0.02 0.02 0.02 0.02 0.02 0.02 0.02 0.03 0.03 0.03 0.03 0.03 0.03 0.03 0.04 0.04 0.04 0.04 0.04 0.04 0.03 0.03 0.04 0.03 0.03 0.03 0.04 0.04 0.04 0.03 0.02 0.01 0.01 0.01 0.01
0.02 0.02 0.02 0.03 0.03 0.03 0.04 0.06 0.05 0.04 0.03 0.03 0.03 0.02 0.02 0.02 0.02 0.03 0.03 0.03 0.03 0.04 0.04 0.05 0.06 0.06 0.04 0.04 0.04 0.04 0.03 0.03 0.04 0.04 0.03 0.02 0.02 0.02 0.02 0.02 0.02 0.01 0.02 0.02
0.03 0.03 0.02 0.02 0.02 0.03 0.04 0.04 0.05 0.06 0.06 0.05 0.05 0.03 0.02 0.03 0.03 0.03 0.04 0.04 0.04 0.07 0.07 0.07 0.07 0.07 0.05 0.04 0.04 0.04 0.03 0.03 0.03 0.03 0.02 0.01 0.01 0.01 0.01 0.02 0.02 0.02 0.02 0.02
0.03 0.03 0.02 0.02 0.03 0.04 0.04 0.04 0.05 0.05 0.06 0.06 0.05 0.05 0.04 0.04 0.04 0.04 0.04 0.04 0.05 0.07 0.08 0.06 0.05 0.04 0.04 0.04 0.03 0.02 0.02 0.02 0.02 0.02 0.01 0.01 0.01 0.01 0.02 0.02 0.03 0.03 0.03 0.02
0.03 0.04 0.03 0.03 0.04 0.06 0.06 0.06 0.07 0.08 0.07 0.06 0.06 0.05 0.04 0.03 0.04 0.04 0.04 0.03 0.03 0.04 0.04 0.04 0.03 0.03 0.04 0.04 0.03 0.02 0.01 0.01 0.02 0.02 0.02 0.02 0.02 0.03 0.03 0.04 0.03 0.03 0.02 0.02
0.03 0.04 0.04 0.04 0.04 0.04 0.05 0.05 0.06 0.09 0.09 0.07 0.07 0.07 0.04 0.03 0.03 0.02 0.02 0.02 0.02 0.02 0.03 0.03 0.03 0.02 0.03 0.04 0.03 0.02 0.02 0.02 0.02 0.02 0.03 0.03 0.03 0.04 0.04 0.03 0.03 0.02 0.02 0.01
MSLP
1008.18 1008.07 1007.95 1007.84 1007.73 1007.60 1007.44 1007.23 1006.96 1006.65 1006.31 1005.99 1005.71 1005.51 1005.43 1005.45 1005.58 1005.79 1006.05 1006.32 1006.59 1006.84 1007.07 1007.31 1007.59 1007.93 1008.36 1008.89 1009.51 1010.20 1010.91 1011.62 1012.26 1012.83 1013.29 1013.66 1013.94 1014.17 1014.37 1014.56 1014.76 1014.98 1015.20 1015.41
1008.83 1008.66 1008.44 1008.17 1007.88 1007.56 1007.24 1006.92 1006.60 1006.31 1006.05 1005.85 1005.71 1005.65 1005.66 1005.73 1005.84 1005.98 1006.11 1006.24 1006.35 1006.45 1006.58 1006.74 1006.99 1007.33 1007.79 1008.36 1009.02 1009.74 1010.47 1011.18 1011.83 1012.39 1012.86 1013.23 1013.52 1013.77 1013.99 1014.21 1014.44 1014.67 1014.91 1015.14
1009.41 1009.22 1008.92 1008.55 1008.14 1007.70 1007.28 1006.88 1006.54 1006.27 1006.08 1005.96 1005.91 1005.92 1005.97 1006.03 1006.09 1006.12 1006.12 1006.09 1006.05 1006.03 1006.05 1006.15 1006.37 1006.71 1007.19 1007.78 1008.47 1009.20 1009.94 1010.65 1011.29 1011.84 1012.31 1012.69 1013.01 1013.28 1013.54 1013.79 1014.05 1014.31 1014.57 1014.80
1009.90 1009.68 1009.35 1008.93 1008.46 1007.96 1007.49 1007.08 1006.74 1006.49 1006.33 1006.26 1006.26 1006.29 1006.32 1006.33 1006.30 1006.21 1006.08 1005.91 1005.74 1005.61 1005.55 1005.60 1005.78 1006.11 1006.59 1007.18 1007.86 1008.59 1009.31 1010.00 1010.62 1011.17 1011.63 1012.03 1012.38 1012.70 1013.00 1013.30 1013.59 1013.87 1014.14 1014.38
1010.24 1010.01 1009.67 1009.24 1008.75 1008.25 1007.78 1007.37 1007.05 1006.83 1006.70 1006.65 1006.65 1006.66 1006.65 1006.59 1006.46 1006.27 1006.02 1005.73 1005.46 1005.24 1005.12 1005.13 1005.28 1005.59 1006.04 1006.61 1007.26 1007.94 1008.62 1009.27 1009.86 1010.39 1010.86 1011.27 1011.66 1012.02 1012.37 1012.71 1013.04 1013.36 1013.63 1013.87
1010.42 1010.17 1009.82 1009.39 1008.92 1008.45 1008.01 1007.63 1007.35 1007.16 1007.05 1007.01 1007.00 1006.97 1006.91 1006.78 1006.57 1006.29 1005.95 1005.59 1005.25 1004.97 1004.81 1004.78 1004.90 1005.17 1005.58 1006.10 1006.68 1007.30 1007.92 1008.51 1009.05 1009.56 1010.02 1010.46 1010.87 1011.28 1011.67 1012.06 1012.43 1012.76 1013.04 1013.27
1010.42 1010.13 1009.76 1009.34 1008.90 1008.46 1008.07 1007.75 1007.51 1007.36 1007.27 1007.23 1007.20 1007.15 1007.04 1006.86 1006.59 1006.25 1005.87 1005.47 1005.10 1004.81 1004.62 1004.56 1004.65 1004.88 1005.23 1005.67 1006.18 1006.71 1007.24 1007.76 1008.25 1008.72 1009.17 1009.61 1010.06 1010.49 1010.93 1011.35 1011.74 1012.08 1012.37 1012.60
1010.24 1009.88 1009.49 1009.07 1008.65 1008.26 1007.93 1007.67 1007.48 1007.36 1007.30 1007.26 1007.22 1007.15 1007.01 1006.80 1006.51 1006.16 1005.76 1005.36 1005.00 1004.71 1004.52 1004.45 1004.51 1004.68 1004.96 1005.32 1005.73 1006.16 1006.60 1007.04 1007.47 1007.90 1008.33 1008.77 1009.22 1009.68 1010.14 1010.58 1010.99 1011.34 1011.63 1011.85
1009.90 1009.47 1009.03 1008.61 1008.21 1007.87 1007.59 1007.38 1007.24 1007.16 1007.13 1007.10 1007.06 1006.98 1006.84 1006.62 1006.33 1005.99 1005.61 1005.24 1004.90 1004.63 1004.45 1004.37 1004.40 1004.52 1004.73 1005.00 1005.31 1005.64 1005.98 1006.34 1006.70 1007.08 1007.49 1007.92 1008.37 1008.84 1009.31 1009.76 1010.17 1010.53 1010.83 1011.05
1009.43 1008.93 1008.46 1008.02 1007.65 1007.34 1007.11 1006.96 1006.86 1006.82 1006.81 1006.80 1006.76 1006.68 1006.54 1006.33 1006.06 1005.75 1005.41 1005.08 1004.77 1004.53 1004.36 1004.27 1004.26 1004.33 1004.46 1004.64 1004.85 1005.09 1005.34 1005.62 1005.92 1006.25 1006.62 1007.03 1007.48 1007.94 1008.41 1008.87 1009.29 1009.65 1009.96 1010.20
1008.89 1008.33 1007.83 1007.40 1007.05 1006.79 1006.61 1006.50 1006.45 1006.44 1006.44 1006.44 1006.41 1006.34 1006.20 1006.01 1005.76 1005.47 1005.17 1004.86 1004.59 1004.36 1004.19 1004.08 1004.03 1004.04 1004.10 1004.19 1004.31 1004.46 1004.63 1004.84 1005.08 1005.37 1005.71 1006.09 1006.52 1006.98 1007.44 1007.90 1008.32 1008.70 1009.03 1009.30
1008.30 1007.72 1007.23 1006.82 1006.52 1006.30 1006.17 1006.11 1006.10 1006.12 1006.14 1006.15 1006.12 1006.03 1005.90 1005.71 1005.47 1005.19 1004.91 1004.62 1004.35 1004.12 1003.93 1003.78 1003.68 1003.63 1003.60 1003.61 1003.65 1003.72 1003.82 1003.96 1004.15 1004.40 1004.71 1005.07 1005.48 1005.93 1006.39 1006.84 1007.28 1007.68 1008.04 1008.35
1007.68 1007.13 1006.68 1006.33 1006.09 1005.95 1005.88 1005.87 1005.90 1005.94 1005.97 1005.98 1005.94 1005.85 1005.70 1005.50 1005.25 1004.97 1004.67 1004.37 1004.09 1003.83 1003.59 1003.39 1003.23 1003.09 1002.99 1002.92 1002.88 1002.87 1002.91 1003.00 1003.14 1003.35 1003.63 1003.97 1004.36 1004.80 1005.25 1005.72 1006.17 1006.60 1007.00 1007.36
1007.06 1006.58 1006.21 1005.95 1005.80 1005.73 1005.73 1005.78 1005.85 1005.91 1005.95 1005.95 1005.90 1005.79 1005.62 1005.40 1005.13 1004.82 1004.50 1004.16 1003.84 1003.52 1003.23 1002.96 1002.71 1002.50 1002.31 1002.16 1002.04 1001.97 1001.94 1001.98 1002.08 1002.25 1002.50 1002.81 1003.19 1003.61 1004.07 1004.54 1005.01 1005.47 1005.91 1006.32
1006.43 1006.06 1005.81 1005.66 1005.61 1005.63 1005.71 1005.81 1005.92 1006.00 1006.05 1006.04 1005.97 1005.84 1005.64 1005.38 1005.08 1004.74 1004.38 1004.00 1003.62 1003.25 1002.88 1002.53 1002.21 1001.91 1001.64 1001.41 1001.21 1001.07 1000.99 1000.97 1001.03 1001.16 1001.37 1001.65 1002.00 1002.40 1002.85 1003.33 1003.81 1004.30 1004.78 1005.24
1005.84 1005.59 1005.46 1005.42 1005.48 1005.59 1005.73 1005.88 1006.02 1006.12 1006.16 1006.14 1006.06 1005.90 1005.68 1005.40 1005.07 1004.70 1004.30 1003.87 1003.44 1003.01 1002.58 1002.16 1001.76 1001.39 1001.04 1000.73 1000.47 1000.26 1000.12 1000.04 1000.04 1000.12 1000.28 1000.52 1000.84 1001.21 1001.64 1002.10 1002.60 1003.10 1003.61 1004.12
1005.31 1005.18 1005.16 1005.22 1005.36 1005.53 1005.72 1005.90 1006.05 1006.15 1006.19 1006.16 1006.06 1005.88 1005.64 1005.35 1005.00 1004.61 1004.19 1003.74 1003.28 1002.80 1002.33 1001.86 1001.40 1000.96 1000.55 1000.18 999.85 999.58 999.37 999.23 999.17 999.19 999.29 999.46 999.72 1000.05 1000.44 1000.89 1001.37 1001.88 1002.41 1002.94
1004.90 1004.85 1004.91 1005.03 1005.21 1005.42 1005.62 1005.80 1005.93 1006.01 1006.03 1005.98 1005.86 1005.68 1005.43 1005.14 1004.79 1004.41 1003.99 1003.54 1003.07 1002.58 1002.09 1001.59 1001.10 1000.63 1000.17 999.75 999.37 999.04 998.77 998.56 998.42 998.36 998.38 998.48 998.67 998.93 999.27 999.67 1000.14 1000.64 1001.18 1001.73
1004.62 1004.62 1004.71 1004.85 1005.03 1005.21 1005.38 1005.52 1005.61 1005.65 1005.63 1005.56 1005.42 1005.23 1004.99 1004.70 1004.38 1004.02 1003.63 1003.20 1002.76 1002.29 1001.81 1001.32 1000.82 1000.33 999.86 999.40 998.98 998.60 998.26 997.98 997.76 997.61 997.54 997.56 997.66 997.85 998.12 998.47 998.90 999.39 999.93 1000.50
1004.49 1004.49 1004.56 1004.67 1004.80 1004.92 1005.02 1005.08 1005.10 1005.07 1005.00 1004.88 1004.72 1004.53 1004.30 1004.04 1003.75 1003.43 1003.08 1002.71 1002.31 1001.88 1001.43 1000.96 1000.48 1000.00 999.52 999.05 998.60 998.17 997.77 997.43 997.13 996.90 996.74 996.66 996.68 996.78 996.99 997.29 997.68 998.16 998.70 999.30
1004.45 1004.43 1004.44 1004.47 1004.51 1004.53 1004.53 1004.49 1004.42 1004.32 1004.18 1004.02 1003.84 1003.64 1003.42 1003.19 1002.94 1002.67 1002.37 1002.05 1001.70 1001.32 1000.91 1000.48 1000.03 999.56 999.08 998.60 998.13 997.67 997.23 996.83 996.47 996.16 995.92 995.77 995.71 995.75 995.90 996.16 996.52 996.99 997.56 998.19
1004.43 1004.34 1004.28 1004.21 1004.14 1004.05 1003.93 1003.79 1003.62 1003.43 1003.24 1003.03 1002.83 1002.63 1002.43 1002.22 1002.01 1001.78 1001.53 1001.25 1000.95 1000.61 1000.24 999.83 999.40 998.95 998.48 997.99 997.51 997.03 996.56 996.12 995.72 995.36 995.08 994.87 994.76 994.76 994.88 995.12 995.49 995.97 996.57 997.26
1004.28 1004.13 1003.97 1003.81 1003.62 1003.42 1003.19 1002.95 1002.70 1002.45 1002.21 1001.98 1001.76 1001.57 1001.38 1001.20 1001.02 1000.82 1000.61 1000.36 1000.08 999.76 999.41 999.01 998.59 998.14 997.67 997.18 996.69 996.21 995.73 995.28 994.87 994.50 994.21 993.99 993.88 993.88 994.01 994.26 994.66 995.18 995.83 996.59
1003.87 1003.64 1003.40 1003.14 1002.87 1002.57 1002.26 1001.94 1001.64 1001.35 1001.09 1000.85 1000.65 1000.47 1000.32 1000.16 1000.01 999.84 999.64 999.40 999.13 998.81 998.44 998.04 997.60 997.15 996.67 996.18 995.70 995.22 994.76 994.33 993.95 993.62 993.36 993.19 993.12 993.17 993.35 993.66 994.12 994.71 995.43 996.27
1003.06 1002.77 1002.45 1002.12 1001.76 1001.40 1001.03 1000.68 1000.36 1000.07 999.82 999.61 999.45 999.31 999.20 999.09 998.96 998.81 998.62 998.38 998.09 997.75 997.36 996.94 996.48 996.00 995.51 995.03 994.56 994.12 993.70 993.33 993.02 992.77 992.60 992.53 992.56 992.70 992.98 993.39 993.93 994.61 995.41 996.33
1001.80 1001.43 1001.04 1000.64 1000.22 999.81 999.42 999.07 998.76 998.50 998.30 998.16 998.06 998.00 997.95 997.89 997.81 997.69 997.51 997.27 996.97 996.60 996.19 995.73 995.25 994.76 994.27 993.81 993.38 992.99 992.66 992.38 992.18 992.06 992.03 992.10 992.27 992.55 992.96 993.49 994.14 994.91 995.80 996.79
1000.09 999.63 999.16 998.69 998.22 997.78 997.38 997.03 996.76 996.57 996.44 996.39 996.39 996.42 996.45 996.48 996.46 996.39 996.25 996.03 995.73 995.36 994.94 994.47 993.99 993.50 993.04 992.62 992.25 991.95 991.73 991.59 991.54 991.58 991.72 991.96 992.31 992.76 993.31 993.98 994.75 995.61 996.57 997.61
Thickness
5774 5785 5791 5791 5793 5796 5787 5777 5767 5773 5779 5789 5798 5801 5804 5806 5806 5805 5804 5803 5804 5802 5800 5800 5798 5798 5797 5795 5793 5792 5788 5785 5783 5782 5780 5777 5774 5772 5770 5767 5766 5762 5759 5757
5767 5782 5786 5784 5791 5793 5790 5788 5782 5781 5781 5798 5802 5802 5800 5801 5801 5798 5798 5799 5799 5799 5797 5795 5795 5795 5794 5793 5790 5788 5784 5781 5780 5778 5775 5772 5770 5767 5765 5762 5760 5758 5755 5753
5743 5764 5769 5759 5780 5785 5785 5789 5785 5775 5784 5794 5792 5794 5794 5796 5797 5795 5795 5796 5796 5795 5796 5795 5794 5792 5789 5788 5786 5783 5779 5777 5775 5773 5770 5768 5766 5762 5759 5757 5754 5752 5750 5747
5730 5743 5731 5756 5789 5793 5786 5785 5788 5787 5789 5793 5794 5794 5796 5797 5794 5792 5793 5792 5790 5791 5793 5794 5792 5790 5787 5784 5780 5777 5773 5770 5769 5767 5764 5763 5760 5756 5754 5751 5748 5746 5744 5742
5715 5719 5732 5760 5781 5784 5777 5770 5784 5783 5785 5788 5791 5787 5784 5792 5793 5791 5791 5789 5787 5788 5789 5789 5787 5786 5782 5777 5774 5771 5767 5764 5763 5761 5759 5757 5754 5751 5749 5745 5742 5740 5739 5736
5713 5714 5715 5745 5778 5792 5779 5755 5779 5780 5779 5780 5780 5762 5768 5785 5787 5786 5786 5784 5783 5782 5782 5781 5781 5779 5774 5769 5766 5763 5762 5761 5758 5756 5753 5751 5749 5746 5743 5739 5736 5735 5733 5730
5708 5708 5722 5754 5775 5779 5745 5746 5773 5777 5777 5775 5769 5769 5775 5780 5779 5779 5779 5778 5776 5775 5773 5773 5773 5771 5765 5762 5759 5758 5757 5756 5753 5750 5748 5745 5742 5739 5736 5733 5730 5727 5725 5723
5700 5700 5711 5754 5761 5751 5749 5765 5770 5772 5772 5770 5769 5770 5770 5771 5771 5771 5770 5769 5768 5766 5764 5763 5765 5762 5756 5754 5755 5753 5750 5748 5745 5743 5741 5740 5735 5731 5728 5725 5721 5718 5717 5715
5707 5710 5731 5746 5750 5756 5759 5759 5762 5763 5766 5766 5763 5760 5760 5761 5762 5762 5761 5759 5759 5758 5756 5755 5756 5755 5751 5750 5750 5746 5742 5739 5737 5734 5733 5731 5728 5724 5720 5718 5714 5711 5709 5707
5706 5716 5728 5738 5746 5750 5753 5754 5757 5759 5760 5759 5755 5753 5752 5752 5752 5752 5752 5752 5752 5751 5747 5747 5748 5748 5746 5745 5743 5739 5734 5731 5729 5726 5724 5723 5720 5718 5714 5711 5708 5705 5703 5700
5697 5708 5718 5725 5733 5739 5744 5749 5750 5751 5751 5750 5748 5746 5745 5744 5743 5743 5744 5744 5744 5740 5738 5738 5739 5738 5738 5736 5734 5729 5725 5723 5721 5720 5717 5715 5713 5712 5710 5708 5706 5701 5699 5697
5687 5700 5703 5710 5722 5731 5731 5734 5738 5738 5738 5738 5739 5738 5737 5735 5734 5734 5733 5734 5733 5732 5731 5730 5730 5729 5729 5728 5725 5720 5716 5714 5713 5712 5710 5707 5704 5702 5704 5703 5701 5698 5696 5693
5698 5703 5705 5710 5716 5721 5721 5723 5727 5728 5727 5726 5727 5728 5728 5726 5725 5725 5725 5724 5722 5722 5721 5720 5720 5719 5719 5718 5716 5712 5709 5707 5706 5704 5701 5698 5696 5693 5691 5692 5692 5690 5689 5687
5699 5700 5697 5700 5704 5710 5712 5713 5716 5717 5718 5717 5717 5717 5717 5716 5715 5714 5713 5714 5714 5713 5711 5711 5709 5709 5709 5708 5706 5703 5700 5700 5698 5696 5694 5691 5689 5687 5685 5682 5680 5680 5680 5679
5692 5695 5694 5695 5698 5700 5703 5703 5704 5704 5705 5706 5706 5706 5706 5705 5704 5704 5704 5705 5704 5702 5701 5700 5699 5699 5700 5699 5697 5694 5692 5691 5690 5688 5687 5684 5682 5680 5677 5676 5674 5672 5671 5670
5684 5687 5689 5687 5687 5690 5692 5693 5692 5693 5695 5695 5695 5696 5697 5695 5694 5694 5695 5694 5691 5690 5691 5691 5691 5692 5692 5690 5688 5686 5685 5685 5683 5680 5678 5676 5674 5672 5669 5667 5665 5665 5663 5662
5673 5674 5676 5675 5678 5681 5682 5683 5683 5684 5685 5685 5686 5687 5686 5684 5683 5682 5682 5683 5682 5682 5683 5683 5683 5684 5684 5683 5681 5679 5678 5677 5676 5673 5671 5669 5667 5665 5662 5660 5658 5657 5656 5656
5671 5672 5673 5672 5670 5672 5673 5675 5676 5676 5675 5676 5677 5676 5675 5673 5671 5671 5672 5672 5672 5673 5674 5675 5675 5675 5675 5675 5674 5672 5671 5669 5668 5666 5664 5662 5660 5659 5656 5653 5650 5649 5649 5648
5664 5664 5665 5666 5667 5666 5666 5666 5668 5668 5668 5668 5668 5666 5666 5666 5664 5663 5663 5662 5661 5661 5664 5666 5666 5666 5666 5667 5667 5665 5663 5661 5660 5658 5656 5654 5652 5650 5648 5646 5644 5642 5641 5639
5655 5657 5657 5658 5660 5659 5658 5659 5659 5659 5660 5660 5659 5658 5657 5657 5657 5656 5654 5653 5653 5655 5657 5657 5657 5657 5657 5658 5659 5657 5656 5654 5652 5650 5648 5646 5643 5641 5639 5638 5637 5635 5633 5631
5645 5646 5647 5648 5649 5651 5652 5652 5651 5651 5652 5652 5651 5650 5649 5649 5648 5647 5646 5645 5647 5649 5649 5649 5649 5649 5649 5649 5649 5648 5647 5645 5643 5641 5640 5638 5636 5634 5632 5631 5629 5627 5625 5623
5636 5638 5639 5639 5640 5642 5643 5644 5644 5643 5644 5643 5644 5643 5642 5641 5640 5640 5640 5641 5642 5642 5642 5642 5642 5642 5642 5641 5640 5639 5638 5637 5635 5634 5633 5631 5629 5627 5625 5622 5620 5619 5617 5615
5628 5630 5631 5632 5633 5633 5634 5635 5636 5636 5636 5636 5636 5636 5636 5636 5636 5634 5633 5635 5636 5636 5636 5636 5636 5636 5635 5633 5632 5632 5631 5630 5628 5626 5625 5624 5622 5620 5618 5615 5613 5611 5609 5606
5620 5621 5623 5624 5625 5625 5625 5627 5628 5629 5629 5629 5630 5630 5630 5629 5629 5630 5631 5631 5631 5630 5629 5630 5630 5629 5628 5627 5626 5625 5624 5623 5621 5619 5618 5617 5615 5613 5611 5608 5606 5603 5601 5598
5613 5614 5615 5615 5615 5616 5619 5620 5621 5621 5621 5621 5622 5624 5625 5626 5625 5625 5624 5624 5624 5623 5623 5623 5623 5623 5622 5621 5619 5618 5617 5616 5614 5612 5611 5609 5607 5605 5603 5600 5598 5595 5593 5589
5606 5606 5608 5609 5610 5611 5612 5613 5612 5612 5612 5612 5613 5615 5617 5619 5620 5620 5619 5618 5618 5617 5616 5615 5616 5615 5615 5614 5613 5611 5610 5608 5607 5605 5604 5602 5600 5597 5595 5592 5590 5587 5584 5581
5600 5600 5601 5602 5604 5605 5606 5606 5605 5605 5605 5606 5607 5609 5610 5612 5613 5613 5612 5612 5611 5610 5609 5608 5608 5608 5607 5606 5605 5604 5603 5602 5601 5599 5596 5594 5592 5589 5586 5583 5580 5577 5574 5571